| time (UTC) | temp F | wind direction | speed MPH | gust MPH | rain 1hr in | rain 24hr in | rain mn in | humidity % | barometer mb |
| 20260507101006 | 55 | 301 | 5.0 | 12.0 | 0.00 | 0.00 | 0.00 | 74 | 1015.1 |
| 20260507100008 | 55 | 274 | 2.0 | 12.0 | 0.00 | 0.00 | 0.00 | 75 | 1015.1 |
| 20260507095005 | 54 | 290 | 3.0 | 12.0 | 0.00 | 0.00 | 0.00 | 76 | 1015.1 |
| 20260507094006 | 54 | 300 | 3.0 | 13.0 | 0.00 | 0.00 | 0.00 | 74 | 1015.0 |
| 20260507093008 | 54 | 316 | 3.0 | 12.0 | 0.00 | 0.00 | 0.00 | 73 | 1014.8 |
| 20260507092006 | 54 | 287 | 1.0 | 10.0 | 0.00 | 0.00 | 0.00 | 71 | 1014.7 |
| 20260507091006 | 54 | 225 | 1.0 | 5.0 | 0.00 | 0.00 | 0.00 | 70 | 1014.7 |
| 20260507090007 | 54 | 267 | 1.0 | 3.0 | 0.00 | 0.00 | 0.00 | 72 | 1014.7 |
| 20260507085005 | 53 | 234 | 0.0 | 3.0 | 0.00 | 0.00 | 0.00 | 70 | 1014.6 |
| 20260507084005 | 52 | 304 | 1.0 | 6.0 | 0.00 | 0.00 | 0.00 | 69 | 1014.6 |
| 20260507083008 | 52 | 246 | 0.0 | 3.0 | 0.00 | 0.00 | 0.00 | 70 | 1014.6 |
| 20260507082005 | 51 | 298 | 0.0 | 2.0 | 0.00 | 0.00 | 0.00 | 73 | 1014.6 |
| 20260507081006 | 51 | 245 | 0.0 | 3.0 | 0.00 | 0.00 | 0.00 | 71 | 1014.4 |
| 20260507080008 | 50 | 279 | 0.0 | 1.0 | 0.00 | 0.00 | 0.00 | 72 | 1014.2 |
| 20260507075005 | 50 | 309 | 0.0 | 1.0 | 0.00 | 0.00 | 0.00 | 68 | 1014.1 |
| 20260507074005 | 49 | 227 | 0.0 | 1.0 | 0.00 | 0.00 | 0.00 | 71 | 1014.1 |
| 20260507073009 | 48 | 226 | 0.0 | 1.0 | 0.00 | 0.00 | 0.00 | 71 | 1014.1 |
| 20260507072006 | 48 | 264 | 0.0 | 0.0 | 0.00 | 0.00 | 0.00 | 78 | 1014.1 |
| 20260507071006 | 47 | 259 | 0.0 | 0.0 | 0.00 | 0.00 | 0.00 | 80 | 1014.1 |
| 20260507070011 | 46 | 243 | 0.0 | 0.0 | 0.00 | 0.00 | 0.00 | 85 | 1014.0 |
| 20260507065006 | 45 | 243 | 0.0 | 0.0 | 0.00 | 0.00 | 0.00 | 89 | 1014.0 |
| 20260507064005 | 45 | 244 | 0.0 | 0.0 | 0.00 | 0.00 | 0.00 | 91 | 1014.0 |
| 20260507063008 | 45 | 244 | 0.0 | 0.0 | 0.00 | 0.00 | 0.00 | 92 | 1013.8 |
| 20260507062006 | 45 | 244 | 0.0 | 0.0 | 0.00 | 0.00 | 0.00 | 92 | 1013.7 |
| 20260507061005 | 44 | 244 | 0.0 | 0.0 | 0.00 | 0.00 | 0.00 | 93 | 1013.8 |
| 20260507060008 | 44 | 245 | 0.0 | 0.0 | 0.00 | 0.00 | 0.00 | 92 | 1013.6 |
| 20260507055006 | 44 | 139 | 0.0 | 0.0 | 0.00 | 0.00 | 0.00 | 93 | 1013.6 |
| 20260507054006 | 43 | 139 | 0.0 | 0.0 | 0.00 | 0.00 | 0.00 | 92 | 1013.6 |
| 20260507053008 | 43 | 139 | 0.0 | 0.0 | 0.00 | 0.00 | 0.00 | 93 | 1013.6 |
| 20260507052005 | 42 | 139 | 0.0 | 0.0 | 0.00 | 0.00 | 0.00 | 92 | 1013.5 |
| 20260507051006 | 42 | 139 | 0.0 | 0.0 | 0.00 | 0.00 | 0.00 | 92 | 1013.5 |
| 20260507050008 | 42 | 139 | 0.0 | 0.0 | 0.00 | 0.00 | 0.00 | 92 | 1013.3 |
| 20260507045006 | 41 | 139 | 0.0 | 0.0 | 0.00 | 0.00 | 0.00 | 92 | 1013.2 |
| 20260507044006 | 40 | 139 | 0.0 | 0.0 | 0.00 | 0.00 | 0.00 | 92 | 1013.1 |
| 20260507043007 | 40 | 139 | 0.0 | 0.0 | 0.00 | 0.00 | 0.00 | 92 | 1013.1 |
| 20260507042006 | 39 | 139 | 0.0 | 0.0 | 0.00 | 0.00 | 0.00 | 92 | 1013.0 |
| 20260507041007 | 39 | 139 | 0.0 | 0.0 | 0.00 | 0.00 | 0.00 | 92 | 1013.1 |
| 20260507040008 | 39 | 139 | 0.0 | 0.0 | 0.00 | 0.00 | 0.00 | 92 | 1013.0 |
| 20260507035008 | 39 | 139 | 0.0 | 0.0 | 0.00 | 0.00 | 0.00 | 92 | 1013.0 |
| 20260507034006 | 39 | 139 | 0.0 | 0.0 | 0.00 | 0.00 | 0.00 | 91 | 1013.0 |
| 20260507033010 | 38 | 139 | 0.0 | 0.0 | 0.00 | 0.00 | 0.00 | 91 | 1012.9 |
| 20260507032007 | 39 | 139 | 0.0 | 0.0 | 0.00 | 0.00 | 0.00 | 91 | 1012.8 |
| 20260507031006 | 39 | 139 | 0.0 | 0.0 | 0.00 | 0.00 | 0.00 | 91 | 1012.7 |
| 20260507030007 | 39 | 139 | 0.0 | 0.0 | 0.00 | 0.00 | 0.00 | 91 | 1012.7 |
| 20260507025006 | 39 | 139 | 0.0 | 0.0 | 0.00 | 0.00 | 0.00 | 91 | 1012.5 |
| 20260507024006 | 39 | 139 | 0.0 | 0.0 | 0.00 | 0.00 | 0.00 | 91 | 1012.5 |
| 20260507023008 | 39 | 139 | 0.0 | 0.0 | 0.00 | 0.00 | 0.00 | 91 | 1012.5 |
| 20260507022006 | 39 | 139 | 0.0 | 0.0 | 0.00 | 0.00 | 0.00 | 90 | 1012.4 |
| 20260507021006 | 39 | 139 | 0.0 | 0.0 | 0.00 | 0.00 | 0.00 | 90 | 1012.5 |
| 20260507020009 | 39 | 139 | 0.0 | 0.0 | 0.00 | 0.00 | 0.00 | 90 | 1012.5 |
| 20260507015006 | 39 | 139 | 0.0 | 0.0 | 0.00 | 0.00 | 0.00 | 90 | 1012.3 |
| 20260507014005 | 39 | 139 | 0.0 | 0.0 | 0.00 | 0.00 | 0.00 | 90 | 1012.4 |
| 20260507013008 | 39 | 139 | 0.0 | 0.0 | 0.00 | 0.00 | 0.00 | 89 | 1012.2 |
| 20260507012005 | 39 | 139 | 0.0 | 0.0 | 0.00 | 0.00 | 0.00 | 89 | 1012.1 |
| 20260507011006 | 39 | 139 | 0.0 | 0.0 | 0.00 | 0.00 | 0.00 | 89 | 1012.1 |
| 20260507010008 | 39 | 139 | 0.0 | 0.0 | 0.00 | 0.00 | 0.00 | 89 | 1012.1 |
| 20260507005005 | 39 | 139 | 0.0 | 0.0 | 0.00 | 0.00 | 0.00 | 88 | 1012.1 |
| 20260507004005 | 40 | 139 | 0.0 | 0.0 | 0.00 | 0.00 | 0.00 | 89 | 1012.0 |
| 20260507003008 | 40 | 139 | 0.0 | 0.0 | 0.00 | 0.00 | 0.00 | 89 | 1012.0 |
| 20260507002005 | 40 | 139 | 0.0 | 0.0 | 0.00 | 0.00 | 0.00 | 88 | 1012.0 |
| 20260507001006 | 40 | 139 | 0.0 | 0.0 | 0.00 | 0.00 | 0.00 | 88 | 1012.0 |
| 20260507000008 | 40 | 139 | 0.0 | 0.0 | 0.00 | 0.00 | 0.00 | 88 | 1012.0 |
| 20260506235006 | 40 | 139 | 0.0 | 0.0 | 0.00 | 0.00 | 0.00 | 87 | 1012.0 |
| 20260506234006 | 40 | 139 | 0.0 | 0.0 | 0.00 | 0.00 | 0.00 | 87 | 1012.0 |
| 20260506233007 | 40 | 139 | 0.0 | 0.0 | 0.00 | 0.00 | 0.00 | 86 | 1012.0 |
| 20260506232006 | 40 | 139 | 0.0 | 0.0 | 0.00 | 0.00 | 0.00 | 86 | 1012.0 |
| 20260506231005 | 40 | 139 | 0.0 | 0.0 | 0.00 | 0.00 | 0.00 | 86 | 1012.0 |
| 20260506230007 | 40 | 138 | 0.0 | 0.0 | 0.00 | 0.00 | 0.00 | 86 | 1011.9 |
| 20260506225006 | 41 | 138 | 0.0 | 0.0 | 0.00 | 0.00 | 0.00 | 85 | 1011.9 |
| 20260506224006 | 41 | 138 | 0.0 | 0.0 | 0.00 | 0.00 | 0.00 | 85 | 1011.9 |
| 20260506223008 | 41 | 138 | 0.0 | 0.0 | 0.00 | 0.00 | 0.00 | 84 | 1011.9 |
| 20260506222005 | 41 | 138 | 0.0 | 0.0 | 0.00 | 0.00 | 0.00 | 84 | 1011.9 |
| 20260506221005 | 42 | 138 | 0.0 | 0.0 | 0.00 | 0.00 | 0.00 | 83 | 1011.9 |
| 20260506220008 | 42 | 138 | 0.0 | 0.0 | 0.00 | 0.00 | 0.00 | 83 | 1011.9 |
| 20260506215006 | 42 | 138 | 0.0 | 0.0 | 0.00 | 0.00 | 0.00 | 83 | 1011.8 |
| 20260506214005 | 42 | 138 | 0.0 | 0.0 | 0.00 | 0.00 | 0.00 | 82 | 1011.6 |
| 20260506213008 | 43 | 138 | 0.0 | 0.0 | 0.00 | 0.00 | 0.00 | 82 | 1011.5 |
| 20260506212006 | 43 | 138 | 0.0 | 1.0 | 0.00 | 0.00 | 0.00 | 82 | 1011.5 |
| 20260506211005 | 44 | 138 | 0.0 | 1.0 | 0.00 | 0.00 | 0.00 | 82 | 1011.4 |
| 20260506210008 | 44 | 130 | 0.0 | 1.0 | 0.00 | 0.00 | 0.00 | 82 | 1011.4 |
| 20260506205006 | 44 | 141 | 0.0 | 2.0 | 0.00 | 0.00 | 0.00 | 81 | 1011.4 |
| 20260506204006 | 45 | 141 | 0.0 | 2.0 | 0.00 | 0.00 | 0.00 | 80 | 1011.1 |
| 20260506203008 | 45 | 139 | 1.0 | 3.0 | 0.00 | 0.00 | 0.00 | 79 | 1011.1 |
| 20260506202005 | 45 | 142 | 1.0 | 6.0 | 0.00 | 0.00 | 0.00 | 78 | 1011.0 |
| 20260506201006 | 45 | 141 | 0.0 | 3.0 | 0.00 | 0.00 | 0.00 | 76 | 1011.0 |
| 20260506200008 | 45 | 138 | 0.0 | 3.0 | 0.00 | 0.00 | 0.00 | 75 | 1010.9 |
| 20260506195005 | 46 | 131 | 0.0 | 2.0 | 0.00 | 0.00 | 0.00 | 74 | 1010.9 |
| 20260506194006 | 46 | 131 | 1.0 | 2.0 | 0.00 | 0.00 | 0.00 | 72 | 1010.9 |
| 20260506193008 | 46 | 130 | 0.0 | 3.0 | 0.00 | 0.00 | 0.00 | 71 | 1010.9 |
| 20260506192005 | 47 | 133 | 0.0 | 3.0 | 0.00 | 0.00 | 0.00 | 70 | 1010.9 |
| 20260506191005 | 48 | 143 | 0.0 | 1.0 | 0.00 | 0.00 | 0.00 | 68 | 1010.8 |
| 20260506190018 | 48 | 146 | 0.0 | 2.0 | 0.00 | 0.00 | 0.00 | 66 | 1010.7 |
| 20260506185005 | 49 | 143 | 0.0 | 2.0 | 0.00 | 0.00 | 0.00 | 64 | 1010.5 |
| 20260506184006 | 50 | 153 | 0.0 | 3.0 | 0.00 | 0.00 | 0.00 | 63 | 1010.4 |
| 20260506183008 | 50 | 141 | 2.0 | 7.0 | 0.00 | 0.00 | 0.00 | 61 | 1010.3 |
| 20260506182005 | 51 | 151 | 1.0 | 9.0 | 0.00 | 0.00 | 0.00 | 59 | 1010.2 |
| 20260506181005 | 51 | 156 | 2.0 | 6.0 | 0.00 | 0.00 | 0.00 | 58 | 1010.0 |
| 20260506180007 | 52 | 152 | 1.0 | 7.0 | 0.00 | 0.00 | 0.00 | 56 | 1009.9 |
| 20260506175005 | 52 | 149 | 1.0 | 6.0 | 0.00 | 0.00 | 0.00 | 55 | 1009.9 |
| 20260506174006 | 52 | 151 | 1.0 | 7.0 | 0.00 | 0.00 | 0.00 | 54 | 1009.9 |
| 20260506173008 | 53 | 154 | 3.0 | 7.0 | 0.00 | 0.00 | 0.00 | 53 | 1009.8 |
| 20260506172006 | 53 | 152 | 1.0 | 9.0 | 0.00 | 0.00 | 0.00 | 53 | 1009.8 |
| 20260506171006 | 53 | 144 | 2.0 | 8.0 | 0.00 | 0.00 | 0.00 | 51 | 1009.6 |
| 20260506170007 | 53 | 154 | 2.0 | 12.0 | 0.00 | 0.00 | 0.00 | 51 | 1009.6 |
| 20260506165006 | 53 | 167 | 2.0 | 7.0 | 0.00 | 0.00 | 0.00 | 51 | 1009.6 |
| 20260506164006 | 53 | 162 | 1.0 | 6.0 | 0.00 | 0.00 | 0.00 | 51 | 1009.7 |
| 20260506163009 | 53 | 182 | 0.0 | 7.0 | 0.00 | 0.00 | 0.00 | 52 | 1009.5 |
| 20260506162005 | 53 | 152 | 0.0 | 12.0 | 0.00 | 0.00 | 0.00 | 51 | 1009.4 |
| 20260506161005 | 53 | 158 | 0.0 | 3.0 | 0.00 | 0.00 | 0.00 | 52 | 1009.4 |
| 20260506160008 | 53 | 174 | 0.0 | 7.0 | 0.00 | 0.00 | 0.00 | 51 | 1009.4 |
| 20260506155005 | 53 | 160 | 1.0 | 12.0 | 0.00 | 0.00 | 0.00 | 52 | 1009.4 |
| 20260506154006 | 53 | 161 | 2.0 | 9.0 | 0.00 | 0.00 | 0.00 | 52 | 1009.4 |
| 20260506153008 | 53 | 178 | 1.0 | 12.0 | 0.00 | 0.00 | 0.00 | 51 | 1009.4 |
| 20260506152006 | 54 | 155 | 0.0 | 12.0 | 0.00 | 0.00 | 0.00 | 54 | 1009.4 |
| 20260506151006 | 55 | 164 | 2.0 | 12.0 | 0.00 | 0.00 | 0.00 | 57 | 1009.3 |
| 20260506150007 | 55 | 156 | 1.0 | 9.0 | 0.00 | 0.00 | 0.00 | 59 | 1009.3 |
| 20260506145006 | 55 | 148 | 5.0 | 12.0 | 0.00 | 0.00 | 0.00 | 58 | 1009.3 |
| 20260506144005 | 56 | 140 | 5.0 | 13.0 | 0.00 | 0.00 | 0.00 | 59 | 1009.2 |
| 20260506143007 | 56 | 119 | 1.0 | 3.0 | 0.00 | 0.00 | 0.00 | 57 | 1009.1 |
| 20260506142005 | 56 | 190 | 0.0 | 0.0 | 0.00 | 0.00 | 0.00 | 61 | 1009.0 |
| 20260506141006 | 56 | 300 | 0.0 | 3.0 | 0.00 | 0.00 | 0.00 | 62 | 1009.0 |
| 20260506140008 | 56 | 96 | 0.0 | 0.0 | 0.00 | 0.00 | 0.00 | 57 | 1009.0 |
| 20260506135005 | 56 | 109 | 0.0 | 1.0 | 0.00 | 0.00 | 0.00 | 60 | 1008.8 |
| 20260506134005 | 56 | 40 | 0.0 | 7.0 | 0.00 | 0.00 | 0.00 | 59 | 1008.8 |
| 20260506133007 | 56 | 53 | 1.0 | 7.0 | 0.00 | 0.00 | 0.00 | 56 | 1008.8 |
| 20260506132005 | 56 | 45 | 0.0 | 1.0 | 0.00 | 0.00 | 0.00 | 58 | 1008.7 |
| 20260506131006 | 55 | 45 | 0.0 | 3.0 | 0.00 | 0.00 | 0.00 | 61 | 1008.8 |
| 20260506130007 | 55 | 0 | 1.0 | 7.0 | 0.00 | 0.00 | 0.00 | 61 | 1008.8 |
| 20260506125005 | 55 | 37 | 0.0 | 5.0 | 0.00 | 0.00 | 0.00 | 59 | 1008.7 |
| 20260506124006 | 55 | 12 | 3.0 | 12.0 | 0.00 | 0.00 | 0.00 | 59 | 1008.7 |
| 20260506123008 | 56 | 8 | 1.0 | 12.0 | 0.00 | 0.00 | 0.00 | 56 | 1008.5 |
| 20260506122006 | 58 | 348 | 6.0 | 12.0 | 0.00 | 0.00 | 0.00 | 58 | 1008.4 |
| 20260506121005 | 58 | 2 | 1.0 | 12.0 | 0.00 | 0.00 | 0.00 | 57 | 1008.5 |
| 20260506120008 | 58 | 4 | 4.0 | 12.0 | 0.00 | 0.00 | 0.00 | 57 | 1008.5 |
| 20260506115006 | 57 | 358 | 3.0 | 15.0 | 0.00 | 0.00 | 0.00 | 55 | 1008.6 |
| 20260506114005 | 57 | 4 | 2.0 | 12.0 | 0.00 | 0.00 | 0.00 | 55 | 1008.7 |
| 20260506113008 | 57 | 0 | 6.0 | 12.0 | 0.00 | 0.00 | 0.00 | 56 | 1008.7 |
| 20260506112006 | 56 | 22 | 2.0 | 12.0 | 0.00 | 0.00 | 0.00 | 56 | 1008.8 |
| 20260506111005 | 56 | 4 | 3.0 | 14.0 | 0.00 | 0.00 | 0.00 | 57 | 1008.7 |
| 20260506110007 | 57 | 359 | 5.0 | 13.0 | 0.00 | 0.00 | 0.00 | 57 | 1008.7 |
| 20260506105005 | 56 | 342 | 3.0 | 12.0 | 0.00 | 0.00 | 0.00 | 59 | 1008.8 |
| 20260506104005 | 56 | 352 | 2.0 | 10.0 | 0.00 | 0.00 | 0.00 | 56 | 1008.8 |
| 20260506103008 | 56 | 1 | 3.0 | 10.0 | 0.00 | 0.00 | 0.00 | 54 | 1008.8 |
| 20260506102005 | 56 | 355 | 3.0 | 10.0 | 0.00 | 0.00 | 0.00 | 53 | 1008.8 |